Location: Fort Worth, Tx
(32.7431°N, 97.3695°W)
Time: 23:20:34
(UTC-05:00)

Transit 4A - Visible Passes

Search period start: 29 January 2023 00:00
Search period end: 08 February 2023 00:00
Orbit: 871 x 973 km, 66.8° (Epoch: 29 January)

Date Brightness Start Highest point End Pass type
(mag) Time Alt. Az. Time Alt. Az. Time Alt. Az.
29 Jan 8.8 05:39:22 43° SE 05:39:22 43° SE 05:43:34 10° SE visible
29 Jan 9.3 07:22:57 16° W 07:23:14 16° WSW 07:26:43 10° SW visible
29 Jan 9.0 20:34:19 10° SW 20:39:43 38° WNW 20:45:07 10° N visible
30 Jan 9.0 05:49:32 34° SSE 05:49:32 34° SSE 05:52:51 10° SSE visible
30 Jan 9.7 20:44:21 10° WSW 20:49:06 25° NW 20:53:52 10° N visible
31 Jan 9.5 05:59:43 22° S 05:59:43 22° S 06:01:49 10° S visible
31 Jan 10.2 20:54:54 10° W 20:58:35 17° NW 21:02:17 10° N visible
01 Feb 10.0 06:09:55 12° S 06:09:55 12° S 06:10:24 10° S visible
01 Feb 10.5 21:06:37 10° WNW 21:08:11 11° NW 21:09:45 10° NNW visible
02 Feb 8.7 19:24:33 10° SW 19:30:13 51° WNW 19:35:53 10° NNE visible
03 Feb 9.4 19:34:19 10° WSW 19:39:32 33° WNW 19:44:46 10° N visible
04 Feb 10.0 19:44:31 10° WSW 19:48:57 22° NW 19:53:25 10° N visible
05 Feb 10.2 19:55:18 10° W 19:58:28 15° NW 20:01:39 10° NNW visible
